Weather History for Wendover, UT

Change the Weather History Date:

Sunday, December 30, 2012

  Actual Average Record
Temperature  
Mean Temperature 17 °F -  
Max Temperature 24 °F 31 °F 53 °F (1945)
Min Temperature 10 °F 16 °F -10 °F (1990)
Degree Days  
Heating Degree Days 48    
Moisture  
Dew Point 13 °F    
Average Humidity 87    
Maximum Humidity 100    
Minimum Humidity 67    
Precipitation  
Precipitation 0.00 in - - ()
Sea Level Pressure  
Sea Level Pressure 30.04 in    
Wind  
Wind Speed 1 mph (SSW)    
Max Wind Speed 6 mph    
Max Gust Speed -    
Visibility 10 miles    
Events      
Averages and records for this station are not official NWS values.
T = Trace of Precipitation, MM = Missing Value Source: NWS Daily Summary

Daily Weather History Graph

Daily Weather History Graph

Search for Another Location

Airport:

Trip Planner

Search our weather history database for the weather conditions in past years. The results will help you decide how hot, cold, wet, or windy it might be!

Date:

Astronomy

Dec. 30, 2012 Rise Set
Actual Time 7:59 AM MST 5:18 PM MST
Civil Twilight 7:29 AM MST 5:49 PM MST
Nautical Twilight 6:54 AM MST 6:23 PM MST
Astronomical Twilight 6:21 AM MST 6:56 PM MST
Moon 7:54 PM MST (12/30) 9:10 AM MST (12/30)
Length of Visible Light 10h 19m
Length of Day
9h 18m
Waning Gibbous, 95% of the Moon is Illuminated
Dec 30
Waning Gibbous
Jan 4
Last Quarter
Jan 11
New
Jan 18
First Quarter
Jan 26
Full

Hourly Weather History & Observations

Time (MST) Temp. Windchill Dew Point Humidity Pressure Visibility Wind Dir Wind Speed Gust Speed Precip Events Conditions
12:15 AM 12.2 °F - 12.2 °F 100% 30.02 in 10.0 mi Calm Calm - N/A   Mostly Cloudy
12:35 AM 10.4 °F 4.0 °F 8.6 °F 92% 30.01 in 10.0 mi West 3.5 mph - N/A   Overcast
12:55 AM 12.2 °F - 10.4 °F 92% 30.01 in 10.0 mi Calm Calm - N/A   Overcast
1:15 AM 12.2 °F - 10.4 °F 92% 30.01 in 10.0 mi Calm Calm - N/A   Scattered Clouds
1:35 AM 12.2 °F - 8.6 °F 85% 30.01 in 10.0 mi Calm Calm - N/A   Clear
1:55 AM 12.2 °F - 10.4 °F 92% 30.01 in 10.0 mi Calm Calm - N/A   Clear
2:15 AM 12.2 °F - 10.4 °F 92% 30.01 in 10.0 mi Calm Calm - N/A   Clear
2:35 AM 12.2 °F - 10.4 °F 92% 30.01 in 10.0 mi Calm Calm - N/A   Clear
2:55 AM 12.2 °F - 10.4 °F 92% 30.02 in 10.0 mi Calm Calm - N/A   Partly Cloudy
3:15 AM 14.0 °F - 10.4 °F 86% 30.02 in 10.0 mi Calm Calm - N/A   Clear
3:35 AM 14.0 °F - 12.2 °F 93% 30.02 in 10.0 mi Calm Calm - N/A   Clear
4:15 AM 15.8 °F - 12.2 °F 86% 30.02 in 10.0 mi Calm Calm - N/A   Scattered Clouds
4:35 AM 15.8 °F - 12.2 °F 86% 30.02 in 10.0 mi Calm Calm - N/A   Partly Cloudy
4:55 AM 15.8 °F - 12.2 °F 86% 30.02 in 10.0 mi Calm Calm - N/A   Clear
5:15 AM 15.8 °F - 12.2 °F 86% 30.02 in 10.0 mi Calm Calm - N/A   Clear
5:35 AM 14.0 °F - 12.2 °F 93% 30.02 in 10.0 mi Calm Calm - N/A   Clear
5:55 AM 14.0 °F - 12.2 °F 93% 30.02 in 10.0 mi Calm Calm - N/A   Clear
6:15 AM 15.8 °F - 12.2 °F 86% 30.02 in 10.0 mi Calm Calm - N/A   Clear
6:35 AM 12.2 °F - 8.6 °F 85% 30.01 in 10.0 mi Calm Calm - N/A   Mostly Cloudy
6:55 AM 12.2 °F - 8.6 °F 85% 30.02 in 10.0 mi Calm Calm - N/A   Scattered Clouds
7:15 AM 12.2 °F - 10.4 °F 92% 30.01 in 10.0 mi Calm Calm - N/A   Clear
7:35 AM 12.2 °F - 10.4 °F 92% 30.01 in 10.0 mi Calm Calm - N/A   Clear
7:55 AM 12.2 °F - 8.6 °F 85% 30.02 in 10.0 mi Calm Calm - N/A   Clear
8:15 AM 14.0 °F - 12.2 °F 93% 30.03 in 5.0 mi Calm Calm - N/A   Clear
8:35 AM 12.2 °F - 10.4 °F 92% 30.03 in 5.0 mi Calm Calm - N/A   Clear
8:55 AM 12.2 °F - 8.6 °F 85% 30.04 in 10.0 mi Calm Calm - N/A   Partly Cloudy
9:15 AM 12.2 °F - 8.6 °F 85% 30.04 in 10.0 mi Calm Calm - N/A   Scattered Clouds
9:35 AM 15.8 °F - 12.2 °F 86% 30.04 in 10.0 mi Calm Calm - N/A   Overcast
9:55 AM 15.8 °F - 12.2 °F 86% 30.05 in 10.0 mi Calm Calm - N/A   Mostly Cloudy
10:15 AM 17.6 °F - 15.8 °F 93% 30.06 in 10.0 mi Calm Calm - N/A   Mostly Cloudy
10:35 AM 19.4 °F - 15.8 °F 86% 30.06 in 10.0 mi Calm Calm - N/A   Mostly Cloudy
10:55 AM 19.4 °F - 15.8 °F 86% 30.06 in 10.0 mi Calm Calm - N/A   Overcast
11:15 AM 19.4 °F - 15.8 °F 86% 30.06 in 10.0 mi Calm Calm - N/A   Overcast
11:35 AM 21.2 °F 16.4 °F 15.8 °F 80% 30.06 in 10.0 mi SE 3.5 mph - N/A   Overcast
11:55 AM 21.2 °F - 17.6 °F 86% 30.05 in 10.0 mi Calm Calm - N/A   Scattered Clouds
12:35 PM 21.2 °F 13.6 °F 17.6 °F 86% 30.04 in 5.0 mi SW 5.8 mph - N/A   Clear
12:55 PM 23.0 °F 17.0 °F 17.6 °F 80% 30.04 in 10.0 mi South 4.6 mph - N/A   Clear
1:15 PM 23.0 °F 15.8 °F 17.6 °F 80% 30.03 in 10.0 mi South 5.8 mph - N/A   Clear
1:35 PM 24.8 °F 20.5 °F 17.6 °F 74% 30.03 in 10.0 mi SSE 3.5 mph - N/A   Clear
1:55 PM 24.8 °F 19.1 °F 17.6 °F 74% 30.03 in 10.0 mi SSE 4.6 mph - N/A   Clear
2:15 PM 24.8 °F - 17.6 °F 74% 30.03 in 10.0 mi Calm Calm - N/A   Clear
2:35 PM 24.8 °F 19.1 °F 17.6 °F 74% 30.03 in 10.0 mi SSW 4.6 mph - N/A   Clear
2:55 PM 24.8 °F 17.9 °F 17.6 °F 74% 30.03 in 10.0 mi South 5.8 mph - N/A   Clear
3:15 PM 23.0 °F 17.0 °F 17.6 °F 80% 30.04 in 10.0 mi SSW 4.6 mph - N/A   Scattered Clouds
3:35 PM 23.0 °F - 17.6 °F 80% 30.04 in 10.0 mi Calm Calm - N/A   Mostly Cloudy
3:55 PM 23.0 °F - 17.6 °F 80% 30.04 in 10.0 mi Calm Calm - N/A   Scattered Clouds
4:15 PM 23.0 °F - 17.6 °F 80% 30.04 in 10.0 mi Calm Calm - N/A   Partly Cloudy
4:35 PM 23.0 °F - 17.6 °F 80% 30.04 in 10.0 mi Calm Calm - N/A   Partly Cloudy
4:55 PM 21.2 °F - 17.6 °F 86% 30.04 in 10.0 mi Calm Calm - N/A   Mostly Cloudy
5:15 PM 21.2 °F - 17.6 °F 86% 30.04 in 10.0 mi Calm Calm - N/A   Overcast
5:35 PM 19.4 °F 14.3 °F 15.8 °F 86% 30.03 in 10.0 mi West 3.5 mph - N/A   Mostly Cloudy
5:55 PM 19.4 °F 14.3 °F 15.8 °F 86% 30.04 in 10.0 mi SW 3.5 mph - N/A   Partly Cloudy
6:15 PM 17.6 °F - 15.8 °F 93% 30.05 in 10.0 mi Calm Calm - N/A   Partly Cloudy
6:35 PM 17.6 °F - 15.8 °F 93% 30.05 in 10.0 mi Calm Calm - N/A   Partly Cloudy
6:55 PM 17.6 °F - 17.6 °F 100% 30.05 in 10.0 mi Calm Calm - N/A   Clear
7:15 PM 17.6 °F - 17.6 °F 100% 30.05 in 10.0 mi Calm Calm - N/A   Clear
7:35 PM 14.0 °F 8.2 °F 14.0 °F 100% 30.05 in 10.0 mi NE 3.5 mph - N/A   Clear
7:55 PM 12.2 °F 6.1 °F 12.2 °F 100% 30.06 in 10.0 mi North 3.5 mph - N/A   Clear
8:15 PM 17.6 °F 12.3 °F 17.6 °F 100% 30.06 in 10.0 mi ESE 3.5 mph - N/A   Clear
8:55 PM 15.8 °F - 10.4 °F 79% 30.06 in 10.0 mi Calm Calm - N/A   Clear
9:15 PM 19.4 °F - 17.6 °F 93% 30.06 in 10.0 mi Calm Calm - N/A   Clear
9:35 PM 12.2 °F - 8.6 °F 85% 30.07 in 10.0 mi Calm Calm - N/A   Clear
9:55 PM 14.0 °F 6.5 °F 8.6 °F 79% 30.08 in 10.0 mi WNW 4.6 mph - N/A   Clear
10:15 PM 15.8 °F - 10.4 °F 79% 30.08 in 10.0 mi Calm Calm - N/A   Clear
10:35 PM 15.8 °F - 15.8 °F 100% 30.10 in 10.0 mi Calm Calm - N/A   Clear
10:55 PM 15.8 °F 7.2 °F 10.4 °F 79% 30.10 in 10.0 mi SW 5.8 mph - N/A   Clear
11:15 PM 15.8 °F 8.6 °F 8.6 °F 73% 30.09 in 10.0 mi West 4.6 mph - N/A   Clear
11:35 PM 10.4 °F 4.0 °F 1.4 °F 67% 30.10 in 10.0 mi ENE 3.5 mph - N/A   Clear
11:55 PM 14.0 °F - 12.2 °F 93% 30.10 in 10.0 mi Calm Calm - N/A   Clear